CW1546 Weather Reports


time (UTC)temp
C
wind
direction
speed
KPH
gust
KPH
rain 1hr
cm
rain 24hr
cm
rain mn
cm
humidity
%
barometer
mb
20260505211107 20 223 12.9 29.0 0.00 0.23 0.23 41 1011.0
20260505210548 20 213 6.4 25.7 0.00 0.23 0.23 42 1011.2
20260505210105 20 208 8.0 25.7 0.00 0.23 0.23 42 1011.3
20260505205549 21 215 11.3 24.1 0.00 0.23 0.23 42 1011.3
20260505205053 20 140 11.3 24.1 0.00 0.23 0.23 43 1011.4
20260505204616 20 214 9.7 24.1 0.00 0.23 0.23 45 1011.4
20260505204032 20 162 12.9 24.1 0.00 0.23 0.23 44 1011.3
20260505203531 20 212 4.8 22.5 0.00 0.23 0.23 46 1011.5
20260505203037 20 203 9.7 24.1 0.00 0.23 0.23 47 1011.5
20260505202541 20 224 9.7 24.1 0.00 0.23 0.23 47 1011.4
20260505202045 20 211 3.2 22.5 0.00 0.23 0.23 48 1011.5
20260505201529 20 214 8.0 20.9 0.00 0.23 0.23 48 1011.5
20260505201032 20 221 8.0 20.9 0.00 0.23 0.23 49 1011.5
20260505200535 20 215 3.2 17.7 0.00 0.23 0.23 50 1011.6
20260505200109 20 210 6.4 19.3 0.00 0.23 0.23 50 1011.8
20260505195531 19 211 8.0 22.5 0.00 0.23 0.23 50 1011.7
20260505195057 19 218 8.0 29.0 0.00 0.23 0.23 50 1011.7
20260505194533 19 192 12.9 29.0 0.00 0.23 0.23 50 1011.9
20260505194116 20 216 8.0 22.5 0.00 0.23 0.23 50 1011.7
20260505193532 20 153 8.0 20.9 0.00 0.23 0.23 49 1011.7
20260505193057 19 189 8.0 30.6 0.00 0.23 0.23 50 1011.7
20260505192542 19 201 11.3 30.6 0.00 0.23 0.23 49 1011.8
20260505192049 19 189 12.9 29.0 0.00 0.23 0.23 50 1011.9
20260505191551 18 194 8.0 22.5 0.00 0.23 0.23 54 1011.9
20260505191031 18 203 11.3 27.4 0.00 0.23 0.23 54 1011.9
20260505190538 18 205 14.5 27.4 0.00 0.23 0.23 54 1011.9
20260505190056 18 215 12.9 27.4 0.00 0.23 0.23 54 1011.9
20260505185539 18 224 12.9 30.6 0.00 0.23 0.23 53 1012.0
20260505185103 18 171 9.7 30.6 0.00 0.23 0.23 54 1012.2
20260505184545 18 198 4.8 22.5 0.00 0.23 0.23 56 1012.2
20260505184045 18 197 8.0 22.5 0.00 0.23 0.23 55 1012.1
20260505183530 18 195 6.4 20.9 0.00 0.23 0.23 56 1012.3
20260505183034 17 208 8.0 20.9 0.00 0.23 0.23 59 1012.3
20260505182559 17 215 11.3 25.7 0.00 0.23 0.23 59 1012.2
20260505182041 16 197 11.3 32.2 0.00 0.23 0.23 60 1012.1
20260505181544 16 196 11.3 27.4 0.00 0.23 0.23 61 1012.1
20260505181047 16 208 9.7 20.9 0.00 0.23 0.23 60 1012.4
20260505180548 16 216 4.8 19.3 0.00 0.23 0.23 62 1012.3
20260505180059 16 222 8.0 19.3 0.00 0.23 0.23 63 1012.3
20260505175542 16 212 8.0 16.1 0.00 0.23 0.23 63 1012.4
20260505175046 16 201 6.4 16.1 0.00 0.23 0.23 63 1012.2
20260505174548 16 172 3.2 11.3 0.00 0.23 0.23 64 1012.3
20260505174053 16 170 1.6 9.7 0.00 0.23 0.23 66 1012.4
20260505173553 16 166 0.0 9.7 0.00 0.23 0.23 66 1012.5
20260505173035 16 159 1.6 8.0 0.00 0.23 0.23 66 1012.5
20260505172600 16 155 0.0 9.7 0.00 0.23 0.23 67 1012.4
20260505172046 16 155 3.2 12.9 0.00 0.23 0.23 66 1012.6
20260505171531 16 185 6.4 12.9 0.00 0.23 0.23 67 1012.5
20260505171034 16 219 4.8 11.3 0.00 0.23 0.23 70 1012.6
20260505170542 15 219 0.0 4.8 0.00 0.23 0.23 73 1012.6
20260505170058 15 219 1.6 6.4 0.00 0.23 0.23 74 1012.6
20260505165601 15 219 0.0 9.7 0.00 0.23 0.23 73 1012.6
20260505165044 15 219 3.2 11.3 0.00 0.23 0.23 73 1012.6
20260505164549 15 220 4.8 12.9 0.00 0.23 0.23 77 1012.8
20260505164030 15 222 4.8 12.9 0.00 0.23 0.23 83 1012.7
20260505163538 14 230 3.2 9.7 0.00 0.23 0.23 87 1012.5
20260505163044 14 339 0.0 3.2 0.00 0.23 0.23 88 1012.5
20260505162547 13 339 0.0 1.6 0.00 0.23 0.23 88 1012.4
20260505162049 13 339 0.0 1.6 0.00 0.23 0.23 89 1012.3
20260505161535 13 339 0.0 1.6 0.03 0.23 0.23 89 1012.3
20260505161057 13 339 0.0 1.6 0.05 0.23 0.23 91 1012.3
20260505160540 13 339 0.0 1.6 0.08 0.23 0.23 91 1012.4
20260505153041 12 339 0.0 0.0 0.18 0.23 0.23 91 1012.2
20260505152544 12 339 0.0 0.0 0.18 0.23 0.23 90 1012.2
20260505152048 12 339 0.0 0.0 0.18 0.23 0.23 90 1012.3
20260505151534 12 339 0.0 0.0 0.15 0.20 0.20 90 1012.4
20260505151053 12 339 0.0 0.0 0.13 0.18 0.18 90 1012.4
20260505150530 12 339 0.0 1.6 0.10 0.15 0.15 90 1012.3
20260505150106 12 339 0.0 1.6 0.08 0.13 0.13 90 1012.3
20260505022046 19 218 4.8 20.9 0.00 0.00 0.00 40 1012.7
20260505021532 19 225 6.4 20.9 0.00 0.00 0.00 40 1012.8
20260505021032 19 191 9.7 17.7 0.00 0.00 0.00 40 1012.8
20260505020540 19 210 6.4 14.5 0.00 0.00 0.00 39 1012.5
20260505020118 19 211 8.0 14.5 0.00 0.00 0.00 39 1012.5
20260505015537 19 211 4.8 16.1 0.00 0.00 0.00 39 1012.7
20260505015042 19 212 8.0 19.3 0.00 0.00 0.00 39 1012.8
20260505014542 19 212 8.0 17.7 0.00 0.00 0.00 38 1012.8
20260505014047 20 213 4.8 16.1 0.00 0.00 0.00 38 1012.8
20260505013553 20 214 8.0 16.1 0.00 0.00 0.00 37 1012.7
20260505013029 20 216 6.4 12.9 0.00 0.00 0.00 37 1012.7
20260505012537 20 216 4.8 12.9 0.00 0.00 0.00 36 1012.8
20260505012043 20 217 4.8 12.9 0.00 0.00 0.00 36 1012.7
20260505011531 20 217 6.4 12.9 0.00 0.00 0.00 36 1012.7
20260505011053 20 219 3.2 19.3 0.00 0.00 0.00 36 1012.7
20260505010535 20 217 6.4 19.3 0.00 0.00 0.00 35 1012.7
20260505010112 20 179 8.0 19.3 0.00 0.00 0.00 35 1012.8
20260505005617 20 207 9.7 17.7 0.00 0.00 0.00 35 1012.9
20260505005031 20 214 4.8 14.5 0.00 0.00 0.00 34 1012.9
20260505004552 20 214 9.7 22.5 0.00 0.00 0.00 34 1013.1
20260505004030 20 212 12.9 22.5 0.00 0.00 0.00 34 1013.0
20260505003557 20 212 12.9 22.5 0.00 0.00 0.00 33 1013.1
20260505003035 20 158 4.8 17.7 0.00 0.00 0.00 33 1012.9
20260505002540 20 168 8.0 17.7 0.00 0.00 0.00 33 1012.8
20260505002044 21 197 4.8 14.5 0.00 0.00 0.00 33 1012.6
20260505001548 21 208 8.0 12.9 0.00 0.00 0.00 32 1012.3
20260505001050 21 212 4.8 14.5 0.00 0.00 0.00 32 1012.5
20260505000558 21 217 6.4 20.9 0.00 0.00 0.00 31 1012.6
20260505000109 21 218 8.0 20.9 0.00 0.00 0.00 31 1012.6
20260504235556 21 218 9.7 17.7 0.00 0.00 0.00 31 1012.4
20260504235032 21 208 11.3 17.7 0.00 0.00 0.00 30 1012.6
20260504234559 21 209 3.2 27.4 0.00 0.00 0.00 29 1012.7
20260504234118 21 203 12.9 27.4 0.00 0.00 0.00 29 1013.0
20260504233534 21 218 4.8 14.5 0.00 0.00 0.00 29 1012.9
20260504233039 21 216 3.2 14.5 0.00 0.00 0.00 29 1012.8
20260504232607 21 216 4.8 14.5 0.00 0.00 0.00 28 1012.8
20260504232050 21 215 3.2 19.3 0.00 0.00 0.00 29 1012.8
20260504231553 21 212 9.7 20.9 0.00 0.00 0.00 28 1012.6
20260504231031 21 161 9.7 20.9 0.00 0.00 0.00 29 1012.6
20260504230557 21 205 9.7 17.7 0.00 0.00 0.00 28 1012.8
20260504230131 21 183 6.4 12.9 0.00 0.00 0.00 29 1012.8
20260504225533 21 185 1.6 12.9 0.00 0.00 0.00 29 1012.9
20260504225058 21 183 6.4 12.9 0.00 0.00 0.00 28 1013.1
20260504224600 21 182 6.4 12.9 0.00 0.00 0.00 29 1013.2
20260504224043 21 184 6.4 12.9 0.00 0.00 0.00 30 1013.2
20260504223549 21 186 6.4 22.5 0.00 0.00 0.00 30 1013.3
20260504223055 21 175 9.7 22.5 0.00 0.00 0.00 30 1013.3
20260504222538 21 174 6.4 19.3 0.00 0.00 0.00 30 1013.3
20260504222039 21 195 6.4 19.3 0.00 0.00 0.00 31 1013.3
20260504221545 22 197 9.7 19.3 0.00 0.00 0.00 30 1013.4
20260504221032 22 216 3.2 17.7 0.00 0.00 0.00 30 1013.4
20260504220538 22 215 9.7 16.1 0.00 0.00 0.00 29 1013.5
20260504220115 22 216 6.4 14.5 0.00 0.00 0.00 31 1013.6
20260504215534 22 216 8.0 16.1 0.00 0.00 0.00 31 1013.7
20260504215039 22 218 4.8 12.9 0.00 0.00 0.00 33 1013.6
20260504214556 22 218 8.0 16.1 0.00 0.00 0.00 33 1013.5
20260504214033 22 218 6.4 19.3 0.00 0.00 0.00 32 1013.6
20260504213558 22 218 8.0 19.3 0.00 0.00 0.00 32 1013.6
20260504213038 22 228 6.4 17.7 0.00 0.00 0.00 32 1013.5
20260504212603 22 214 9.7 17.7 0.00 0.00 0.00 32 1013.5
20260504212106 22 216 9.7 17.7 0.00 0.00 0.00 32 1013.5
20260504211546 23 210 8.0 19.3 0.00 0.00 0.00 33 1013.5